User: anonymous   Login
Location: Terra Rouge Observatory
(46.0000°N, 62.7500°W)
Time: 16:37:17
(UTC-04:00)
Language:

NOSS 3-1 (A) - Orbit

View from above orbital plane
View from above orbital plane
View from above satellite
View from above satellite

Ground track
Ground track

The orbit data is extracted from the following two-line orbital elements,

1 26905U 01040A   17055.76303613 0.00000000  00000-0  00000-0 0    07
2 26905  63.4200 320.6902 0361000 357.8163   2.1837 13.40747021    04
Epoch (UTC): 24 February 2017 18:18:46
Eccentricity: 0.0361000
inclination: 63.4200°
perigee height: 836 km
apogee height: 1376 km
right ascension of ascending node: 320.6902°
argument of perigee: 357.8163°
revolutions per day: 13.40747021
mean anomaly at epoch: 2.1837°
orbit number at epoch: 0

The dashed part of the orbit path shows where the satellite is in the earth's shadow,  

DLR